Time,TemperatureF,DewpointF,PressureIn,WindDirection,WindDirectionDegrees,WindSpeedMPH,WindSpeedGustMPH,Humidity,HourlyPrecipIn,Conditions,Clouds,dailyrainin,SoftwareType,DateUTC
2013-06-16 00:01:00,64.0,50.0,-100.00,WNW,301,2.0,8.0,60,-99.99,,,-99.99,,2013-06-16 00:01:00,
2013-06-16 00:11:00,64.0,50.0,-100.00,WNW,301,2.0,8.0,60,-99.99,,,-99.99,,2013-06-16 00:11:00,
2013-06-16 00:22:00,66.0,48.0,-100.00,West,266,4.0,10.0,52,-99.99,,,-99.99,,2013-06-16 00:22:00,
2013-06-16 00:34:00,66.0,48.0,-100.00,West,266,4.0,10.0,52,-99.99,,,-99.99,,2013-06-16 00:34:00,
2013-06-16 00:43:00,66.0,48.0,-100.00,West,266,4.0,10.0,52,-99.99,,,-99.99,,2013-06-16 00:43:00,
2013-06-16 00:52:00,66.0,48.0,-100.00,West,266,4.0,10.0,52,-99.99,,,-99.99,,2013-06-16 00:52:00,
2013-06-16 01:01:00,66.0,48.0,-100.00,West,266,4.0,10.0,52,-99.99,,,-99.99,,2013-06-16 01:01:00,
2013-06-16 01:11:00,66.0,47.0,-100.00,West,277,3.0,9.0,51,-99.99,,,-99.99,,2013-06-16 01:11:00,
2013-06-16 01:22:00,66.0,47.0,-100.00,West,277,3.0,9.0,51,-99.99,,,-99.99,,2013-06-16 01:22:00,
2013-06-16 01:33:00,66.0,47.0,-100.00,West,277,3.0,9.0,51,-99.99,,,-99.99,,2013-06-16 01:33:00,
2013-06-16 01:42:00,64.0,47.0,-100.00,WSW,247,3.0,8.0,54,-99.99,,,-99.99,,2013-06-16 01:42:00,
2013-06-16 01:53:00,64.0,47.0,-100.00,WSW,247,3.0,8.0,54,-99.99,,,-99.99,,2013-06-16 01:53:00,
2013-06-16 02:01:00,64.0,47.0,-100.00,WSW,247,3.0,8.0,54,-99.99,,,-99.99,,2013-06-16 02:01:00,
2013-06-16 02:12:00,64.0,47.0,-100.00,WSW,247,3.0,8.0,54,-99.99,,,-99.99,,2013-06-16 02:12:00,
2013-06-16 02:22:00,65.0,49.0,-100.00,WSW,250,4.0,8.0,56,-99.99,,,-99.99,,2013-06-16 02:22:00,
2013-06-16 02:33:00,65.0,49.0,-100.00,WSW,250,4.0,8.0,56,-99.99,,,-99.99,,2013-06-16 02:33:00,
2013-06-16 02:43:00,65.0,49.0,-100.00,WSW,250,4.0,8.0,56,-99.99,,,-99.99,,2013-06-16 02:43:00,
2013-06-16 02:53:00,65.0,49.0,-100.00,WSW,250,4.0,8.0,56,-99.99,,,-99.99,,2013-06-16 02:53:00,
2013-06-16 03:01:00,65.0,49.0,-100.00,WSW,250,4.0,8.0,56,-99.99,,,-99.99,,2013-06-16 03:01:00,
2013-06-16 03:53:00,68.0,48.0,-100.00,NE,55,1.0,3.0,49,-99.99,,,-99.99,,2013-06-16 03:53:00,
2013-06-16 04:01:00,68.0,48.0,-100.00,NE,55,1.0,3.0,49,-99.99,,,-99.99,,2013-06-16 04:01:00,
2013-06-16 04:12:00,68.0,48.0,-100.00,NE,55,1.0,3.0,49,-99.99,,,-99.99,,2013-06-16 04:12:00,
2013-06-16 04:23:00,68.0,48.0,-100.00,NE,55,1.0,3.0,49,-99.99,,,-99.99,,2013-06-16 04:23:00,
2013-06-16 04:33:00,68.0,48.0,-100.00,NE,55,1.0,3.0,49,-99.99,,,-99.99,,2013-06-16 04:33:00,
2013-06-16 04:53:00,64.0,48.0,-100.00,SW,233,2.0,4.0,56,-99.99,,,-99.99,,2013-06-16 04:53:00,
2013-06-16 05:01:00,64.0,48.0,-100.00,SW,233,2.0,4.0,56,-99.99,,,-99.99,,2013-06-16 05:01:00,
2013-06-16 05:11:00,63.0,48.0,-100.00,WSW,237,2.0,5.0,58,-99.99,,,-99.99,,2013-06-16 05:11:00,
2013-06-16 05:22:00,64.0,47.0,-100.00,WSW,239,1.0,4.0,55,-99.99,,,-99.99,,2013-06-16 05:22:00,
2013-06-16 05:33:00,64.0,47.0,-100.00,WSW,239,1.0,4.0,55,-99.99,,,-99.99,,2013-06-16 05:33:00,
2013-06-16 05:43:00,64.0,47.0,-100.00,WSW,239,1.0,4.0,55,-99.99,,,-99.99,,2013-06-16 05:43:00,
2013-06-16 05:52:00,64.0,47.0,-100.00,WSW,239,1.0,4.0,55,-99.99,,,-99.99,,2013-06-16 05:52:00,
2013-06-16 06:01:00,64.0,47.0,-100.00,WSW,239,1.0,4.0,55,-99.99,,,-99.99,,2013-06-16 06:01:00,
2013-06-16 06:11:00,64.0,46.0,-100.00,SW,218,1.0,3.0,52,-99.99,,,-99.99,,2013-06-16 06:11:00,
2013-06-16 06:22:00,64.0,44.0,-100.00,SSE,155,1.0,3.0,49,-99.99,,,-99.99,,2013-06-16 06:22:00,
2013-06-16 06:33:00,64.0,44.0,-100.00,SSE,155,1.0,3.0,49,-99.99,,,-99.99,,2013-06-16 06:33:00,
2013-06-16 06:43:00,64.0,44.0,-100.00,SSE,155,1.0,3.0,49,-99.99,,,-99.99,,2013-06-16 06:43:00,
2013-06-16 06:52:00,64.0,44.0,-100.00,SSE,155,1.0,3.0,49,-99.99,,,-99.99,,2013-06-16 06:52:00,
2013-06-16 07:01:00,64.0,44.0,-100.00,SSE,155,1.0,3.0,49,-99.99,,,-99.99,,2013-06-16 07:01:00,
2013-06-16 07:11:00,62.0,42.0,-100.00,South,191,0.0,1.0,47,-99.99,,,-99.99,,2013-06-16 07:11:00,
2013-06-16 07:22:00,62.0,42.0,-100.00,South,191,0.0,1.0,47,-99.99,,,-99.99,,2013-06-16 07:22:00,
2013-06-16 07:32:00,62.0,35.0,-100.00,South,188,1.0,2.0,37,-99.99,,,-99.99,,2013-06-16 07:32:00,
2013-06-16 07:43:00,62.0,35.0,-100.00,South,188,1.0,2.0,37,-99.99,,,-99.99,,2013-06-16 07:43:00,
2013-06-16 07:53:00,62.0,36.0,-100.00,South,169,1.0,3.0,38,-99.99,,,-99.99,,2013-06-16 07:53:00,
2013-06-16 08:02:00,62.0,36.0,-100.00,South,169,1.0,3.0,38,-99.99,,,-99.99,,2013-06-16 08:02:00,
2013-06-16 08:11:00,62.0,36.0,-100.00,SE,146,2.0,3.0,38,-99.99,,,-99.99,,2013-06-16 08:11:00,
2013-06-16 08:22:00,62.0,36.0,-100.00,SE,146,2.0,3.0,38,-99.99,,,-99.99,,2013-06-16 08:22:00,
2013-06-16 08:33:00,62.0,36.0,-100.00,SE,146,2.0,3.0,38,-99.99,,,-99.99,,2013-06-16 08:33:00,
2013-06-16 08:43:00,62.0,36.0,-100.00,SE,146,2.0,3.0,38,-99.99,,,-99.99,,2013-06-16 08:43:00,
2013-06-16 08:54:00,61.0,36.0,-100.00,South,171,0.0,2.0,39,-99.99,,,-99.99,,2013-06-16 08:54:00,
2013-06-16 09:01:00,61.0,36.0,-100.00,South,171,0.0,2.0,39,-99.99,,,-99.99,,2013-06-16 09:01:00,
2013-06-16 09:11:00,61.0,36.0,-100.00,South,171,0.0,2.0,39,-99.99,,,-99.99,,2013-06-16 09:11:00,
2013-06-16 09:22:00,62.0,37.0,-100.00,SSW,196,0.0,1.0,39,-99.99,,,-99.99,,2013-06-16 09:22:00,
2013-06-16 09:33:00,62.0,37.0,-100.00,SSW,196,0.0,1.0,39,-99.99,,,-99.99,,2013-06-16 09:33:00,
2013-06-16 09:43:00,62.0,37.0,-100.00,SSW,196,0.0,1.0,39,-99.99,,,-99.99,,2013-06-16 09:43:00,
2013-06-16 09:52:00,61.0,39.0,-100.00,SSW,203,0.0,0.0,44,-99.99,,,-99.99,,2013-06-16 09:52:00,
2013-06-16 10:01:00,61.0,39.0,-100.00,SSW,203,0.0,0.0,44,-99.99,,,-99.99,,2013-06-16 10:01:00,
2013-06-16 10:12:00,61.0,39.0,-100.00,SSW,203,0.0,0.0,44,-99.99,,,-99.99,,2013-06-16 10:12:00,
2013-06-16 10:22:00,61.0,39.0,-100.00,SSW,203,0.0,0.0,44,-99.99,,,-99.99,,2013-06-16 10:22:00,
2013-06-16 10:33:00,61.0,39.0,-100.00,SSW,203,0.0,0.0,44,-99.99,,,-99.99,,2013-06-16 10:33:00,
2013-06-16 11:11:00,59.0,39.0,-100.00,NE,51,3.0,4.0,48,-99.99,,,-99.99,,2013-06-16 11:11:00,
2013-06-16 11:22:00,59.0,39.0,-100.00,NE,51,3.0,4.0,48,-99.99,,,-99.99,,2013-06-16 11:22:00,
2013-06-16 11:33:00,59.0,41.0,-100.00,SE,143,0.0,4.0,51,-99.99,,,-99.99,,2013-06-16 11:33:00,
2013-06-16 11:43:00,59.0,41.0,-100.00,NE,49,2.0,4.0,51,-99.99,,,-99.99,,2013-06-16 11:43:00,
2013-06-16 11:52:00,59.0,41.0,-100.00,NE,49,2.0,4.0,51,-99.99,,,-99.99,,2013-06-16 11:52:00,
2013-06-16 12:01:00,59.0,41.0,-100.00,NE,49,2.0,4.0,51,-99.99,,,-99.99,,2013-06-16 12:01:00,
2013-06-16 12:11:00,59.0,41.0,-100.00,NE,49,2.0,4.0,51,-99.99,,,-99.99,,2013-06-16 12:11:00,
2013-06-16 12:43:00,57.0,41.0,-100.00,NE,40,3.0,5.0,54,-99.99,,,-99.99,,2013-06-16 12:43:00,
2013-06-16 12:51:00,56.0,39.0,-100.00,NE,37,2.0,5.0,53,-99.99,,,-99.99,,2013-06-16 12:51:00,
2013-06-16 12:53:00,57.0,40.0,-100.00,NE,42,3.0,6.0,53,-99.99,,,-99.99,,2013-06-16 12:53:00,
2013-06-16 13:01:00,57.0,40.0,-100.00,NE,42,3.0,6.0,53,-99.99,,,-99.99,,2013-06-16 13:01:00,
2013-06-16 13:11:00,56.0,39.0,-100.00,NE,37,2.0,5.0,53,-99.99,,,-99.99,,2013-06-16 13:11:00,
2013-06-16 13:22:00,56.0,39.0,-100.00,NE,37,2.0,5.0,53,-99.99,,,-99.99,,2013-06-16 13:22:00,
2013-06-16 13:34:00,56.0,39.0,-100.00,NE,37,2.0,5.0,53,-99.99,,,-99.99,,2013-06-16 13:34:00,
2013-06-16 13:42:00,56.0,39.0,-100.00,NE,37,2.0,5.0,53,-99.99,,,-99.99,,2013-06-16 13:42:00,
2013-06-16 14:02:00,57.0,39.0,-100.00,NE,40,1.0,3.0,51,-99.99,,,-99.99,,2013-06-16 14:02:00,
2013-06-16 14:12:00,57.0,38.0,-100.00,NE,36,0.0,2.0,49,-99.99,,,-99.99,,2013-06-16 14:12:00,
2013-06-16 14:22:00,57.0,38.0,-100.00,NE,36,0.0,2.0,49,-99.99,,,-99.99,,2013-06-16 14:22:00,
2013-06-16 14:34:00,57.0,38.0,-100.00,NE,36,0.0,2.0,49,-99.99,,,-99.99,,2013-06-16 14:34:00,
2013-06-16 14:43:00,60.0,38.0,-100.00,NW,315,0.0,0.0,44,-99.99,,,-99.99,,2013-06-16 14:43:00,
2013-06-16 14:52:00,60.0,38.0,-100.00,NW,315,0.0,0.0,44,-99.99,,,-99.99,,2013-06-16 14:52:00,
2013-06-16 15:02:00,61.0,38.0,-100.00,ENE,59,0.0,1.0,42,-99.99,,,-99.99,,2013-06-16 15:02:00,
2013-06-16 15:12:00,61.0,38.0,-100.00,ENE,59,0.0,1.0,42,-99.99,,,-99.99,,2013-06-16 15:12:00,
2013-06-16 15:22:00,61.0,38.0,-100.00,ENE,59,0.0,1.0,42,-99.99,,,-99.99,,2013-06-16 15:22:00,
2013-06-16 15:33:00,61.0,38.0,-100.00,ENE,59,0.0,1.0,42,-99.99,,,-99.99,,2013-06-16 15:33:00,
2013-06-16 16:22:00,63.0,40.0,-100.00,NNE,29,2.0,4.0,42,-99.99,,,-99.99,,2013-06-16 16:22:00,
2013-06-16 16:33:00,63.0,40.0,-100.00,NNE,29,2.0,4.0,42,-99.99,,,-99.99,,2013-06-16 16:33:00,
2013-06-16 17:22:00,65.0,41.0,-100.00,NW,311,0.0,2.0,42,-99.99,,,-99.99,,2013-06-16 17:22:00,
2013-06-16 17:34:00,65.0,41.0,-100.00,NW,311,0.0,2.0,42,-99.99,,,-99.99,,2013-06-16 17:34:00,
2013-06-16 17:43:00,61.0,42.0,-100.00,SW,217,0.0,1.0,50,-99.99,,,-99.99,,2013-06-16 17:43:00,
2013-06-16 17:53:00,61.0,42.0,-100.00,SW,217,0.0,1.0,50,-99.99,,,-99.99,,2013-06-16 17:53:00,
2013-06-16 18:02:00,61.0,42.0,-100.00,SW,217,0.0,1.0,50,-99.99,,,-99.99,,2013-06-16 18:02:00,
2013-06-16 18:12:00,62.0,47.0,-100.00,West,263,0.0,3.0,59,-99.99,,,-99.99,,2013-06-16 18:12:00,
2013-06-16 18:22:00,62.0,47.0,-100.00,West,263,0.0,3.0,59,-99.99,,,-99.99,,2013-06-16 18:22:00,
2013-06-16 18:33:00,62.0,47.0,-100.00,West,263,0.0,3.0,59,-99.99,,,-99.99,,2013-06-16 18:33:00,
2013-06-16 19:34:00,62.0,49.0,-100.00,WSW,251,3.0,5.0,62,-99.99,,,-99.99,,2013-06-16 19:34:00,
2013-06-16 19:43:00,62.0,49.0,-100.00,WSW,251,3.0,5.0,62,-99.99,,,-99.99,,2013-06-16 19:43:00,
2013-06-16 19:53:00,64.0,52.0,-100.00,WNW,303,1.0,3.0,64,-99.99,,,-99.99,,2013-06-16 19:53:00,
2013-06-16 20:01:00,64.0,52.0,-100.00,WNW,303,1.0,3.0,64,-99.99,,,-99.99,,2013-06-16 20:01:00,
2013-06-16 20:11:00,66.0,50.0,-100.00,WSW,246,1.0,4.0,56,-99.99,,,-99.99,,2013-06-16 20:11:00,
2013-06-16 20:22:00,64.0,49.0,-100.00,WNW,283,0.0,4.0,59,-99.99,,,-99.99,,2013-06-16 20:22:00,
2013-06-16 20:33:00,64.0,49.0,-100.00,WNW,283,0.0,4.0,59,-99.99,,,-99.99,,2013-06-16 20:33:00,
2013-06-16 20:42:00,64.0,49.0,-100.00,WNW,283,0.0,4.0,59,-99.99,,,-99.99,,2013-06-16 20:42:00,
2013-06-16 20:53:00,69.0,51.0,-100.00,NE,35,2.0,6.0,52,-99.99,,,-99.99,,2013-06-16 20:53:00,
2013-06-16 21:01:00,69.0,51.0,-100.00,NE,35,2.0,6.0,52,-99.99,,,-99.99,,2013-06-16 21:01:00,
2013-06-16 21:11:00,69.0,51.0,-100.00,NE,35,2.0,6.0,52,-99.99,,,-99.99,,2013-06-16 21:11:00,
2013-06-16 21:21:00,69.0,51.0,-100.00,NE,35,2.0,6.0,52,-99.99,,,-99.99,,2013-06-16 21:21:00,
2013-06-16 21:32:00,73.0,50.0,-100.00,NNE,16,4.0,10.0,45,-99.99,,,-99.99,,2013-06-16 21:32:00,
2013-06-16 21:42:00,73.0,50.0,-100.00,NNE,16,4.0,10.0,45,-99.99,,,-99.99,,2013-06-16 21:42:00,
2013-06-16 21:53:00,73.0,50.0,-100.00,NNE,16,4.0,10.0,45,-99.99,,,-99.99,,2013-06-16 21:53:00,
2013-06-16 22:01:00,73.0,50.0,-100.00,NNE,16,4.0,10.0,45,-99.99,,,-99.99,,2013-06-16 22:01:00,
2013-06-16 22:22:00,75.0,50.0,-100.00,North,357,1.0,9.0,41,-99.99,,,-99.99,,2013-06-16 22:22:00,
2013-06-16 22:32:00,75.0,50.0,-100.00,North,357,1.0,9.0,41,-99.99,,,-99.99,,2013-06-16 22:32:00,
2013-06-16 22:42:00,75.0,50.0,-100.00,North,357,1.0,9.0,41,-99.99,,,-99.99,,2013-06-16 22:42:00,
2013-06-16 22:52:00,76.0,49.0,-100.00,North,7,3.0,9.0,39,-99.99,,,-99.99,,2013-06-16 22:52:00,
2013-06-16 23:01:00,76.0,49.0,-100.00,North,7,3.0,9.0,39,-99.99,,,-99.99,,2013-06-16 23:01:00,
2013-06-16 23:11:00,75.0,51.0,-100.00,NW,318,1.0,6.0,43,-99.99,,,-99.99,,2013-06-16 23:11:00,
2013-06-16 23:22:00,75.0,51.0,-100.00,NW,318,1.0,6.0,43,-99.99,,,-99.99,,2013-06-16 23:22:00,
2013-06-16 23:32:00,75.0,51.0,-100.00,NW,318,1.0,6.0,43,-99.99,,,-99.99,,2013-06-16 23:32:00,
2013-06-16 23:42:00,76.0,52.0,-100.00,North,11,2.0,6.0,44,-99.99,,,-99.99,,2013-06-16 23:42:00,
2013-06-16 23:51:00,74.0,52.0,-100.00,North,5,0.0,6.0,46,-99.99,,,-99.99,,2013-06-16 23:51:00,